Voltar ao catálogo

CZ-6A DEB

AtivoSSO
NORAD 54453·DEBRIS·🇨🇳 China

Lançado Nov 11, 2022 de Taiyuan Satellite Launch Center

Loading…

Próximas Passagens (próximas 24 horas)

TLE

AtualizadoSource: Space-Track

Época: Sep 14, 2026, 06:37 UTC

1 54453U 22151GD  26257.27637082  .00001514  00000-0  80264-3 0  9993
2 54453  98.9115 268.6442 0083463  52.7523 308.1225 14.13387815197173

Acompanhe CZ-6A DEB em tempo real com AllMySat

Download on the App Store